Flag for U.S.A. Weather past 2 weeks in Salt Lake City, Utah, U.S.A.

Now
91 °F

Broken clouds.


Feels Like: 87 °F
Forecast: 68 / 91 °F
Wind: 10 mph from Northwest

Location: Salt Lake City International Airport

Current Time: Aug 2, 2015 at 3:23:04 PM

Latest Report: Aug 2, 2015 at 2:53 PM


Visibility: 10 mi

Pressure: 29.77 "Hg (25.71 "Hg at 1312m altitude)

Humidity: 13%

Dew point: 33 °F

Location of Salt Lake CityLocation

Historic Weather in Salt Lake City — Graph

°F

Salt Lake City temperature yesterday

Maximum temperature yesterday: 94 °F (at 3:53 PM)
Minimum temperature yesterday: 66 °F (at 4:53 AM)
Average temperature yesterday: 80 °F

Past Weeks' High & Low Weather Summary

 TemperatureHumidityPressure
High103 °F (Jul 21, 4:53 PM)87% (Jul 21, 7:53 PM)30.17 "Hg (Jul 21, 7:53 PM)
Low54 °F (Jul 29, 5:53 AM)6% (Jul 26, 3:53 PM)29.56 "Hg (Jul 26, 11:53 PM)
Average76 °F32%29.93 "Hg
* Reported Jul 18 1:53 PM — Aug 2 1:53 PM, Salt Lake City, Weather by CustomWeather, © 2015

Note: Actual official high and low records may vary slightly from our data, if they occured in-between our weather recording intervals... More about our weather records

Advertising

Salt Lake City weather history for previous 24 hours

 ConditionsComfort  
Time TempWeatherWind HumidityBarometerVisibility
1:53 PM
Sun, Aug 2
90 °FPartly sunny.12 mph15%29.78 "Hg10 mi
12:53 PM90 °FPartly sunny.No wind19%29.78 "Hg10 mi
11:53 AM89 °FPartly sunny.7 mph17%29.80 "Hg10 mi
10:53 AM86 °FPartly sunny.5 mph20%29.81 "Hg10 mi
9:53 AM83 °FPartly sunny.6 mph23%29.82 "Hg10 mi
8:53 AM79 °FPartly sunny.9 mph26%29.82 "Hg10 mi
7:53 AM72 °FPartly sunny.7 mph37%29.82 "Hg10 mi
6:53 AM68 °FPassing clouds.5 mph40%29.82 "Hg10 mi
5:53 AM67 °FPassing clouds.6 mph42%29.80 "Hg10 mi
4:53 AM67 °FPassing clouds.6 mph41%29.80 "Hg10 mi
3:53 AM70 °FPassing clouds.3 mph38%29.79 "Hg10 mi
2:53 AM69 °FPassing clouds.No wind42%29.79 "Hg10 mi
1:53 AM72 °FPassing clouds.5 mph35%29.79 "Hg10 mi
12:53 AM75 °FPassing clouds.7 mph30%29.80 "Hg10 mi
11:53 PM
Sat, Aug 1
76 °FPassing clouds.8 mph31%29.80 "Hg10 mi
10:53 PM80 °FPassing clouds.7 mph27%29.81 "Hg10 mi
9:53 PM82 °FPassing clouds.6 mph22%29.81 "Hg10 mi
8:53 PM85 °FPartly sunny.6 mph16%29.80 "Hg10 mi
7:53 PM90 °FBroken clouds.8 mph12%29.80 "Hg10 mi
6:53 PM92 °FPartly sunny.9 mph11%29.81 "Hg10 mi
5:53 PM93 °FPartly sunny.10 mph11%29.82 "Hg10 mi
4:53 PM94 °FPartly sunny.7 mph11%29.84 "Hg10 mi
3:53 PM94 °FPartly sunny.6 mph11%29.86 "Hg10 mi
Weather by CustomWeather, © 2015

See weather overviewHow to use our weather pages